Location: Rimouski
(48.4330°N, 68.5170°W)
Time: 03:30:10
(UTC-04:00)

Envisat - Pass Details

Date: 27 April 2019
Orbit: 764 x 766 km, 98.2° (Epoch: 23 May)

Event Time Altitude Azimuth Distance (km) Brightness Sun altitude
Rises 20:44:25 0° 224° (SW) 3,224 6.4 -9.9°
Reaches altitude 10° 20:48:52 10° 262° (W) 2,306 6.2 -10.5°
Maximum altitude 20:50:05 11° 276° (W) 2,253 6.4 -10.6°
Drops below altitude 10° 20:51:18 10° 290° (WNW) 2,310 6.9 -10.8°
Sets 20:55:47 0° 327° (NNW) 3,244 7.7 -11.4°
